FW3914 Weather Reports


Display with metric or nautical units.
time (UTC)temp
F
wind
direction
speed
MPH
gust
MPH
rain 1hr
in
rain 24hr
in
rain mn
in
humidity
%
barometer
mb
20260902160943 91 207 1.0 5.0 0.00 0.00 0.00 61 1016.7
20260902160439 91 71 3.0 6.0 0.00 0.00 0.00 59 1016.8
20260902155937 91 62 3.0 4.0 0.00 0.00 0.00 60 1016.9
20260902155433 91 186 3.0 8.0 0.00 0.00 0.00 62 1016.6
20260902154926 89 238 3.0 5.0 0.00 0.00 0.00 64 1016.8
20260902154422 91 262 2.0 5.0 0.00 0.00 0.00 61 1016.8
20260902153921 90 257 2.0 5.0 0.00 0.00 0.00 62 1016.8
20260902153420 89 353 3.0 5.0 0.00 0.00 0.00 64 1016.7
20260902152916 91 328 4.0 5.0 0.00 0.00 0.00 62 1016.9
20260902152412 90 326 3.0 4.0 0.00 0.00 0.00 63 1016.7
20260902151907 90 15 2.0 3.0 0.00 0.00 0.00 63 1016.8
20260902151403 89 247 3.0 4.0 0.00 0.00 0.00 66 1016.8
20260902150857 89 286 0.0 5.0 0.00 0.00 0.00 66 1016.8
20260902150354 89 286 2.0 4.0 0.00 0.00 0.00 66 1016.5
20260902145852 90 329 2.0 5.0 0.00 0.00 0.00 64 1016.7
20260902145348 89 208 3.0 5.0 0.00 0.00 0.00 65 1016.5
20260902144843 88 288 0.0 3.0 0.00 0.00 0.00 67 1016.7
20260902144339 88 336 0.0 3.0 0.00 0.00 0.00 66 1016.4
20260902143834 87 251 2.0 6.0 0.00 0.00 0.00 68 1016.5
20260902143334 88 220 3.0 7.0 0.00 0.00 0.00 68 1016.5
20260902142830 87 353 3.0 5.0 0.00 0.00 0.00 69 1016.5
20260902142326 88 179 1.0 3.0 0.00 0.00 0.00 68 1016.4
20260902141821 86 314 2.0 5.0 0.00 0.00 0.00 70 1016.5
20260902141316 87 44 0.0 3.0 0.00 0.00 0.00 68 1016.4
20260902140815 87 238 0.0 3.0 0.00 0.00 0.00 68 1016.5
20260902140311 87 139 0.0 5.0 0.00 0.00 0.00 68 1016.6
20260902135810 87 262 1.0 3.0 0.00 0.00 0.00 69 1016.5
20260902135307 87 344 2.0 3.0 0.00 0.00 0.00 67 1016.5
20260902134805 86 287 0.0 4.0 0.00 0.00 0.00 70 1016.5
20260902134301 85 242 2.0 4.0 0.00 0.00 0.00 71 1016.3
20260902133756 85 346 2.0 4.0 0.00 0.00 0.00 70 1016.3
20260902133255 84 316 2.0 3.0 0.00 0.00 0.00 71 1016.3
20260902132750 84 142 2.0 4.0 0.00 0.00 0.00 70 1016.2
20260902132246 85 6 3.0 5.0 0.00 0.00 0.00 69 1016.3
20260902131741 84 89 0.0 3.0 0.00 0.00 0.00 71 1016.5
20260902131238 83 251 2.0 5.0 0.00 0.00 0.00 72 1016.4
20260902130737 82 353 2.0 6.0 0.00 0.00 0.00 73 1016.5
20260902130233 83 7 0.0 3.0 0.00 0.00 0.00 73 1016.3
20260902125728 83 227 1.0 2.0 0.00 0.00 0.00 73 1016.3
20260902125224 82 274 1.0 3.0 0.00 0.00 0.00 75 1016.2
20260902124720 81 334 1.0 3.0 0.00 0.00 0.00 76 1016.2
20260902124215 80 355 0.0 2.0 0.00 0.00 0.00 77 1016.3
20260902123710 79 6 2.0 3.0 0.00 0.00 0.00 79 1015.9
20260902123207 79 66 0.0 3.0 0.00 0.00 0.00 79 1016.0
20260902122700 79 341 0.0 5.0 0.00 0.00 0.00 79 1015.9
20260902122156 78 332 0.0 4.0 0.00 0.00 0.00 79 1015.8
20260902121651 78 36 1.0 3.0 0.00 0.00 0.00 79 1015.7
20260902121150 78 300 1.0 4.0 0.00 0.00 0.00 79 1016.0
20260902120647 78 17 0.0 3.0 0.00 0.00 0.00 79 1016.0
20260902120143 78 269 0.0 3.0 0.00 0.00 0.00 79 1015.8
20260902115637 79 333 0.0 3.0 0.00 0.00 0.00 78 1015.9
20260902115134 79 109 0.0 5.0 0.00 0.00 0.00 78 1015.8
20260902114629 79 359 0.0 4.0 0.00 0.00 0.00 78 1015.8
20260902114129 79 341 0.0 3.0 0.00 0.00 0.00 79 1015.9
20260902113625 79 333 0.0 4.0 0.00 0.00 0.00 79 1015.9
20260902113120 79 38 0.0 2.0 0.00 0.00 0.00 79 1016.2
20260902112609 79 85 0.0 2.0 0.00 0.00 0.00 79 1016.0
20260902112106 79 55 0.0 4.0 0.00 0.00 0.00 79 1016.0
20260902111602 79 8 1.0 2.0 0.00 0.00 0.00 80 1016.0
20260902111057 79 269 0.0 2.0 0.00 0.00 0.00 80 1016.0
20260902110553 79 269 0.0 1.0 0.00 0.00 0.00 80 1016.0
20260902110049 79 235 0.0 1.0 0.00 0.00 0.00 79 1015.9
20260902105543 79 230 0.0 0.0 0.00 0.00 0.00 79 1015.8
20260902105043 79 273 0.0 1.0 0.00 0.00 0.00 79 1016.1
20260902104539 79 242 0.0 1.0 0.00 0.00 0.00 79 1015.8
20260902104033 79 235 0.0 1.0 0.00 0.00 0.00 79 1015.7
20260902103529 79 235 0.0 2.0 0.00 0.00 0.00 79 1015.9
20260902103024 79 330 0.0 1.0 0.00 0.00 0.00 79 1015.9
20260902102520 79 249 0.0 2.0 0.00 0.00 0.00 79 1015.8
20260902102017 80 326 0.0 2.0 0.00 0.00 0.00 78 1015.8
20260902101512 80 212 0.0 1.0 0.00 0.00 0.00 77 1015.9
20260902101011 80 264 0.0 1.0 0.00 0.00 0.00 77 1015.9
20260902100506 80 322 0.0 2.0 0.00 0.00 0.00 76 1015.7
20260902100006 80 129 0.0 1.0 0.00 0.00 0.00 76 1015.6
20260902095500 80 230 0.0 1.0 0.00 0.00 0.00 76 1015.8
20260902094959 80 345 0.0 1.0 0.00 0.00 0.00 76 1015.8
20260902094455 80 277 0.0 2.0 0.00 0.00 0.00 76 1015.9
20260902093950 80 343 0.0 2.0 0.00 0.00 0.00 76 1015.8
20260902093445 80 242 0.0 1.0 0.00 0.00 0.00 76 1015.8
20260902092944 80 207 1.0 2.0 0.00 0.00 0.00 76 1015.8
20260902092440 80 232 0.0 2.0 0.00 0.00 0.00 76 1015.7
20260902091939 80 263 0.0 1.0 0.00 0.00 0.00 75 1015.8
20260902091435 81 256 0.0 2.0 0.00 0.00 0.00 75 1015.8
20260902090931 81 299 0.0 1.0 0.00 0.00 0.00 75 1015.6
20260902090426 81 242 0.0 1.0 0.00 0.00 0.00 75 1015.7
20260902085925 81 242 0.0 1.0 0.00 0.00 0.00 75 1015.7
20260902085420 81 237 1.0 2.0 0.00 0.00 0.00 74 1015.5
20260902084915 81 219 0.0 2.0 0.00 0.00 0.00 73 1015.7
20260902084412 82 203 0.0 2.0 0.00 0.00 0.00 73 1015.3
20260902083906 82 197 0.0 2.0 0.00 0.00 0.00 73 1015.5
20260902083401 82 155 1.0 3.0 0.00 0.00 0.00 73 1015.5
20260902082856 82 212 0.0 2.0 0.00 0.00 0.00 72 1015.5
20260902082352 82 283 0.0 2.0 0.00 0.00 0.00 72 1015.7
20260902081848 82 266 0.0 2.0 0.00 0.00 0.00 72 1015.5
20260902081344 82 191 1.0 2.0 0.00 0.00 0.00 72 1015.5
20260902080839 82 202 2.0 3.0 0.00 0.00 0.00 72 1015.7
20260902080335 82 262 2.0 3.0 0.00 0.00 0.00 71 1015.5
20260902075834 82 232 2.0 3.0 0.00 0.00 0.00 71 1015.7
20260902075331 83 246 2.0 3.0 0.00 0.00 0.00 71 1015.7
20260902074825 83 233 0.0 3.0 0.00 0.00 0.00 71 1015.7
20260902074316 83 218 2.0 3.0 0.00 0.00 0.00 71 1015.6
20260902073816 83 220 0.0 3.0 0.00 0.00 0.00 70 1015.5
20260902073312 83 184 1.0 3.0 0.00 0.00 0.00 70 1015.6
20260902072808 83 172 2.0 3.0 0.00 0.00 0.00 70 1015.7
20260902072309 84 244 1.0 3.0 0.00 0.00 0.00 70 1015.6
20260902071800 84 181 2.0 5.0 0.00 0.00 0.00 69 1015.6
20260902071254 84 226 2.0 3.0 0.00 0.00 0.00 69 1015.8
20260902070751 84 236 3.0 5.0 0.00 0.00 0.00 70 1015.7
20260902070250 84 190 4.0 7.0 0.00 0.00 0.00 69 1015.7
20260902065749 84 301 1.0 3.0 0.00 0.00 0.00 69 1015.7
20260902065244 84 241 1.0 6.0 0.00 0.00 0.00 69 1015.8
20260902064740 84 163 2.0 4.0 0.00 0.00 0.00 69 1015.6
20260902064236 84 180 2.0 7.0 0.00 0.00 0.00 69 1015.6
20260902063731 84 184 3.0 7.0 0.00 0.00 0.00 68 1015.6
20260902063226 84 170 1.0 3.0 0.00 0.00 0.00 68 1015.7
20260902062725 84 172 2.0 4.0 0.00 0.00 0.00 69 1015.7
20260902062221 84 240 1.0 5.0 0.00 0.00 0.00 69 1015.8
20260902061719 85 258 0.0 5.0 0.00 0.00 0.00 68 1015.7
20260902061215 85 189 2.0 5.0 0.00 0.00 0.00 69 1015.8
20260902060712 85 187 1.0 5.0 0.00 0.00 0.00 69 1015.6
20260902060207 85 77 3.0 5.0 0.00 0.00 0.00 69 1015.8
20260902055703 85 197 0.0 3.0 0.00 0.00 0.00 68 1015.8
20260902055159 85 207 2.0 4.0 0.00 0.00 0.00 69 1015.7
20260902054654 85 182 3.0 5.0 0.00 0.00 0.00 68 1015.7
20260902054149 85 245 2.0 3.0 0.00 0.00 0.00 68 1015.8
20260902053644 85 184 4.0 5.0 0.00 0.00 0.00 68 1015.5
20260902053139 86 204 3.0 5.0 0.00 0.00 0.00 68 1015.3
20260902052633 86 196 3.0 7.0 0.00 0.00 0.00 68 1015.5
20260902052129 86 301 3.0 4.0 0.00 0.00 0.00 68 1015.7
20260902051627 86 182 1.0 5.0 0.00 0.00 0.00 68 1015.7
20260902051127 86 155 4.0 5.0 0.00 0.00 0.00 68 1015.6
20260902050622 86 244 4.0 5.0 0.00 0.00 0.00 67 1015.3
20260902050117 86 225 2.0 3.0 0.00 0.00 0.00 67 1015.6
20260902045612 86 255 2.0 5.0 0.00 0.00 0.00 66 1015.7
20260902045108 87 190 2.0 5.0 0.00 0.00 0.00 66 1015.5
20260902044608 87 190 2.0 8.0 0.00 0.00 0.00 65 1015.5
20260902044104 87 231 2.0 6.0 0.00 0.00 0.00 64 1015.5
20260902043559 87 243 4.0 5.0 0.00 0.00 0.00 64 1015.5
20260902043054 87 189 2.0 7.0 0.00 0.00 0.00 63 1015.7
20260902042554 87 229 1.0 3.0 0.00 0.00 0.00 63 1015.2
20260902042050 88 244 2.0 7.0 0.00 0.00 0.00 62 1015.5
20260902041549 88 123 3.0 7.0 0.00 0.00 0.00 62 1015.3
20260902041044 88 227 1.0 7.0 0.00 0.00 0.00 61 1015.3
20260902040544 88 266 4.0 7.0 0.00 0.00 0.00 61 1015.1
20260902040039 89 240 2.0 13.0 0.00 0.00 0.00 60 1015.2
20260902035537 89 6 5.0 11.0 0.00 0.00 0.00 58 1015.0
20260902035033 89 319 0.0 8.0 0.00 0.00 0.00 56 1015.0
20260902034532 89 265 2.0 8.0 0.00 0.00 0.00 56 1014.9
20260902034031 89 246 1.0 4.0 0.00 0.00 0.00 56 1015.2
20260902033530 89 296 0.0 3.0 0.00 0.00 0.00 56 1014.7
20260902033026 89 229 0.0 3.0 0.00 0.00 0.00 56 1014.7
20260902032524 90 285 1.0 3.0 0.00 0.00 0.00 56 1014.8
20260902032019 90 346 2.0 3.0 0.00 0.00 0.00 55 1014.8
20260902031514 90 339 0.0 4.0 0.00 0.00 0.00 55 1014.8
20260902031011 90 327 2.0 4.0 0.00 0.00 0.00 54 1014.6
20260902030505 91 48 1.0 3.0 0.00 0.00 0.00 54 1014.7
20260902030004 91 331 1.0 3.0 0.00 0.00 0.00 54 1014.4
20260902025459 91 300 2.0 3.0 0.00 0.00 0.00 54 1014.3
20260902024954 91 337 1.0 3.0 0.00 0.00 0.00 54 1014.5
20260902024449 91 300 2.0 3.0 0.00 0.00 0.00 54 1014.3
20260902023944 91 278 2.0 3.0 0.00 0.00 0.00 54 1014.1
20260902023440 91 180 0.0 4.0 0.00 0.00 0.00 54 1014.2
20260902022939 91 329 0.0 2.0 0.00 0.00 0.00 54 1014.2
20260902022435 91 293 2.0 3.0 0.00 0.00 0.00 54 1014.1
20260902021930 91 260 1.0 3.0 0.00 0.00 0.00 54 1014.0
20260902021425 91 315 0.0 2.0 0.00 0.00 0.00 54 1013.8
20260902020921 92 271 2.0 3.0 0.00 0.00 0.00 54 1013.9
20260902020417 92 237 0.0 2.0 0.00 0.00 0.00 54 1013.9
20260902015912 92 234 2.0 3.0 0.00 0.00 0.00 54 1013.9
20260902015408 92 269 0.0 2.0 0.00 0.00 0.00 53 1013.7
20260902014903 92 250 1.0 2.0 0.00 0.00 0.00 53 1013.6
20260902014400 92 244 2.0 2.0 0.00 0.00 0.00 53 1013.4
20260902013858 93 247 2.0 3.0 0.00 0.00 0.00 52 1013.5
20260902013354 93 311 0.0 2.0 0.00 0.00 0.00 50 1013.4
20260902012849 93 289 1.0 3.0 0.00 0.00 0.00 50 1013.5
20260902012345 93 246 0.0 4.0 0.00 0.00 0.00 49 1013.3
20260902011841 93 142 0.0 4.0 0.00 0.00 0.00 49 1013.4
20260902011340 93 347 0.0 2.0 0.00 0.00 0.00 49 1013.2
20260902010835 93 277 1.0 2.0 0.00 0.00 0.00 49 1013.2
20260902010330 94 303 2.0 3.0 0.00 0.00 0.00 48 1013.3
20260902005829 94 297 2.0 3.0 0.00 0.00 0.00 48 1013.1
20260902005329 95 230 2.0 3.0 0.00 0.00 0.00 48 1013.2
20260902004825 95 263 2.0 3.0 0.00 0.00 0.00 47 1013.1
20260902004319 95 278 1.0 2.0 0.00 0.00 0.00 46 1013.1
20260902003814 95 256 1.0 3.0 0.00 0.00 0.00 46 1013.0
20260902003309 96 277 1.0 3.0 0.00 0.00 0.00 46 1013.2
20260902002805 96 269 0.0 4.0 0.00 0.00 0.00 45 1013.2
20260902002259 96 208 1.0 4.0 0.00 0.00 0.00 45 1013.2
20260902001754 96 290 0.0 3.0 0.00 0.00 0.00 45 1013.2
20260902001250 97 244 3.0 4.0 0.00 0.00 0.00 45 1013.1
20260902000749 97 238 0.0 3.0 0.00 0.00 0.00 45 1013.4
20260902000245 98 240 1.0 3.0 0.00 0.00 0.00 44 1013.4
20260901235744 98 310 3.0 5.0 0.00 0.00 0.00 43 1013.3
20260901235240 99 259 2.0 5.0 0.00 0.00 0.00 42 1013.2
20260901234739 99 293 1.0 8.0 0.00 0.00 0.00 42 1013.2
20260901234234 100 271 2.0 3.0 0.00 0.00 0.00 41 1013.4
20260901233728 99 341 3.0 5.0 0.00 0.00 0.00 41 1013.5
20260901233225 100 293 3.0 6.0 0.00 0.00 0.00 41 1013.5
20260901232725 100 230 3.0 4.0 0.00 0.00 0.00 41 1013.7
20260901232220 100 253 2.0 5.0 0.00 0.00 0.00 42 1013.5
20260901231716 100 239 3.0 4.0 0.00 0.00 0.00 42 1013.5
20260901231212 98 267 0.0 3.0 0.00 0.00 0.00 43 1013.8
20260901230708 98 276 1.0 4.0 0.00 0.00 0.00 43 1013.7
20260901230207 97 248 1.0 4.0 0.00 0.00 0.00 43 1013.7
20260901225703 97 326 0.0 4.0 0.00 0.00 0.00 43 1013.6
20260901225157 97 271 2.0 5.0 0.00 0.00 0.00 43 1013.8
20260901224653 98 164 4.0 6.0 0.00 0.00 0.00 43 1013.8
20260901224149 98 216 3.0 6.0 0.00 0.00 0.00 42 1013.8
20260901223644 98 226 3.0 5.0 0.00 0.00 0.00 43 1013.6
20260901223139 98 211 2.0 5.0 0.00 0.00 0.00 42 1013.7
20260901222636 98 269 3.0 7.0 0.00 0.00 0.00 42 1013.6
20260901222132 98 235 1.0 6.0 0.00 0.00 0.00 42 1013.8
20260901221627 99 275 2.0 7.0 0.00 0.00 0.00 42 1013.8
20260901221123 100 307 1.0 6.0 0.00 0.00 0.00 40 1013.7
20260901220622 102 229 3.0 7.0 0.00 0.00 0.00 38 1013.7
20260901220121 101 234 4.0 7.0 0.00 0.00 0.00 40 1013.7
20260901215620 100 269 0.0 5.0 0.00 0.00 0.00 40 1013.6
20260901215114 99 292 3.0 4.0 0.00 0.00 0.00 41 1013.7
20260901214613 98 223 1.0 2.0 0.00 0.00 0.00 42 1013.9
20260901214113 99 37 3.0 4.0 0.00 0.00 0.00 41 1013.9
20260901213607 99 69 2.0 7.0 0.00 0.00 0.00 41 1013.9
20260901213101 101 341 3.0 6.0 0.00 0.00 0.00 40 1013.9
20260901212601 102 241 3.0 7.0 0.00 0.00 0.00 40 1014.0
20260901212058 102 266 2.0 5.0 0.00 0.00 0.00 38 1013.8
20260901211553 102 39 3.0 7.0 0.00 0.00 0.00 39 1014.2
20260901211049 100 356 2.0 4.0 0.00 0.00 0.00 40 1014.1
20260901210544 100 32 5.0 5.0 0.00 0.00 0.00 42 1013.8
20260901210041 101 223 3.0 5.0 0.00 0.00 0.00 42 1014.1
20260901205535 100 337 3.0 4.0 0.00 0.00 0.00 41 1014.2
20260901205030 99 351 3.0 7.0 0.00 0.00 0.00 42 1014.4
20260901204526 100 22 3.0 8.0 0.00 0.00 0.00 41 1014.3
20260901204021 101 21 3.0 8.0 0.00 0.00 0.00 41 1014.4
20260901203515 101 0 4.0 7.0 0.00 0.00 0.00 41 1014.3
20260901203010 101 305 3.0 8.0 0.00 0.00 0.00 41 1014.5
20260901202505 102 284 0.0 5.0 0.00 0.00 0.00 41 1014.5
20260901202001 100 298 2.0 5.0 0.00 0.00 0.00 42 1014.5
20260901201456 99 142 0.0 5.0 0.00 0.00 0.00 43 1014.7
20260901200950 100 258 3.0 8.0 0.00 0.00 0.00 42 1014.7
20260901200445 98 206 1.0 7.0 0.00 0.00 0.00 43 1014.9
20260901195944 99 247 1.0 4.0 0.00 0.00 0.00 44 1015.0
20260901195443 99 33 3.0 7.0 0.00 0.00 0.00 43 1015.1
20260901194937 100 249 4.0 7.0 0.00 0.00 0.00 43 1014.9
20260901194433 101 280 2.0 5.0 0.00 0.00 0.00 43 1015.1
20260901193929 101 301 3.0 4.0 0.00 0.00 0.00 42 1015.2
20260901193428 102 332 1.0 5.0 0.00 0.00 0.00 42 1015.3
20260901192927 101 242 3.0 5.0 0.00 0.00 0.00 45 1015.5
20260901192424 100 354 4.0 7.0 0.00 0.00 0.00 44 1015.2
20260901191920 99 337 2.0 4.0 0.00 0.00 0.00 44 1015.7
20260901191415 98 12 2.0 3.0 0.00 0.00 0.00 46 1015.6
20260901190911 99 3 4.0 6.0 0.00 0.00 0.00 45 1015.7
20260901190411 99 18 0.0 5.0 0.00 0.00 0.00 45 1015.6
20260901185909 100 12 3.0 5.0 0.00 0.00 0.00 44 1015.8
20260901185409 100 230 1.0 6.0 0.00 0.00 0.00 45 1015.9
20260901184903 99 255 3.0 9.0 0.00 0.00 0.00 46 1016.1
20260901184359 98 48 4.0 7.0 0.00 0.00 0.00 46 1016.2
20260901183854 99 166 0.0 6.0 0.00 0.00 0.00 45 1016.1
20260901183353 99 297 3.0 5.0 0.00 0.00 0.00 44 1016.5
20260901182849 99 260 3.0 6.0 0.00 0.00 0.00 45 1016.5
20260901182350 98 238 0.0 6.0 0.00 0.00 0.00 46 1016.6
20260901181844 98 211 3.0 9.0 0.00 0.00 0.00 45 1016.5
20260901181339 98 253 3.0 4.0 0.00 0.00 0.00 45 1016.6
20260901180838 98 253 4.0 7.0 0.00 0.00 0.00 47 1016.7
20260901180337 99 326 2.0 7.0 0.00 0.00 0.00 44 1016.7
20260901175831 98 337 2.0 6.0 0.00 0.00 0.00 44 1017.0
20260901175325 98 0 0.0 4.0 0.00 0.00 0.00 44 1016.9
20260901174820 98 52 3.0 6.0 0.00 0.00 0.00 44 1017.1
20260901174316 98 246 3.0 6.0 0.00 0.00 0.00 46 1017.1
20260901173811 97 159 5.0 8.0 0.00 0.00 0.00 47 1017.1
20260901173306 96 71 2.0 8.0 0.00 0.00 0.00 48 1017.1
20260901172803 98 217 0.0 4.0 0.00 0.00 0.00 47 1017.4
20260901172304 98 244 2.0 5.0 0.00 0.00 0.00 48 1017.3
20260901171800 97 197 5.0 6.0 0.00 0.00 0.00 49 1017.2
20260901171259 96 238 3.0 5.0 0.00 0.00 0.00 52 1017.4
20260901170758 94 263 3.0 4.0 0.00 0.00 0.00 54 1017.5
20260901170253 93 357 2.0 2.0 0.00 0.00 0.00 54 1017.6
20260901165751 94 312 0.0 2.0 0.00 0.00 0.00 54 1017.8
20260901165246 94 218 1.0 3.0 0.00 0.00 0.00 53 1017.5
20260901164743 93 310 0.0 4.0 0.00 0.00 0.00 53 1017.8
20260901164239 94 168 3.0 5.0 0.00 0.00 0.00 52 1017.8
20260901163734 94 218 0.0 4.0 0.00 0.00 0.00 53 1017.7
20260901163233 93 247 3.0 7.0 0.00 0.00 0.00 54 1017.7
20260901162728 93 235 4.0 8.0 0.00 0.00 0.00 54 1017.8
20260901162227 93 273 3.0 5.0 0.00 0.00 0.00 56 1017.8
20260901161726 94 193 2.0 5.0 0.00 0.00 0.00 53 1017.6
20260901161221 95 211 3.0 6.0 0.00 0.00 0.00 52 1017.5